Location: ??
(35.5052°N, 139.7262°E)
Time: 16:22:11
(UTC+00:00)

Meteor 2-6 Rocket - Pass Details

Date: 20 June 2021
Orbit: 805 x 915 km, 81.3° (Epoch: 30 July)

Event Time Altitude Azimuth Distance (km) Brightness Sun altitude
Rises 17:54:47 0° 350° (N) 3,527 7.9 -15.6°
Reaches altitude 10° 17:57:16 10° 350° (N) 2,570 7.2 -15.2°
Maximum altitude 18:03:08 82° 263° (W) 889 4.2 -14.4°
Drops below altitude 10° 18:08:47 10° 177° (S) 2,482 6.3 -13.5°
Enters shadow 18:10:36 - 176° (S) 3,177 6.8 -13.3°
